Weather History for Wausau, WI

Change the Weather History Date:

Saturday, May 19, 2012

  Actual Average Record
Temperature  
Mean Temperature 70 °F 57 °F  
Max Temperature 88 °F 68 °F 88 °F (2012)
Min Temperature 52 °F 45 °F 28 °F (1929)
Degree Days  
Heating Degree Days 0 9  
Month to date heating degree days 128 220  
Since 1 July heating degree days 6628 8072  
Cooling Degree Days 5 1  
Month to date cooling degree days 13 2  
Year to date cooling degree days 23 4  
Growing Degree Days 21 (Base 50)    
Moisture  
Dew Point 51 °F    
Average Humidity 53    
Maximum Humidity 77    
Minimum Humidity 29    
Precipitation  
Precipitation 0.00 in 0.12 in 1.41 in (1940)
Month to date precipitation 2.63 2.03  
Year to date precipitation 8.62 8.46  
Snow  
Snow 0.00 in 0.00 in T in (1955)
Month to date snowfall 0.0 0.2  
Since 1 July snowfall 39.9 59.6  
Snow Depth 0.00 in    
Sea Level Pressure  
Sea Level Pressure 29.92 in    
Wind  
Wind Speed 9 mph (SSE)    
Max Wind Speed 26 mph    
Max Gust Speed 35 mph    
Visibility 10 miles    
Events      
T = Trace of Precipitation, MM = Missing Value Source: NWS Daily Summary

Daily Weather History Graph

Daily Weather History Graph

Search for Another Location

Airport:

Trip Planner

Search our weather history database for the weather conditions in past years. The results will help you decide how hot, cold, wet, or windy it might be!

Date:

Astronomy

May. 19, 2012 Rise Set
Actual Time 5:24 AM CDT 8:25 PM CDT
Civil Twilight 4:50 AM CDT 9:00 PM CDT
Nautical Twilight 4:05 AM CDT 9:45 PM CDT
Astronomical Twilight 3:12 AM CDT 10:38 PM CDT
Moon 4:30 AM CDT (5/19) 7:29 PM CDT (5/19)
Length of Visible Light 16h 10m
Length of Day
15h 00m
Waning Crescent, 1% of the Moon is Illuminated
May 19
Waning Crescent
May 20
New
May 28
First Quarter
Jun 4
Full
Jun 11
Last Quarter

Hourly Weather History & Observations

Time (CDT) Temp. Heat Index Dew Point Humidity Pressure Visibility Wind Dir Wind Speed Gust Speed Precip Events Conditions
12:54 AM 60.1 °F - 46.9 °F 62% 29.93 in 10.0 mi Calm Calm - N/A   Clear
1:54 AM 60.1 °F - 44.1 °F 55% 29.93 in 10.0 mi East 4.6 mph - N/A   Clear
2:54 AM 57.9 °F - 45.0 °F 62% 29.93 in 10.0 mi East 5.8 mph - N/A   Clear
3:54 AM 55.9 °F - 44.1 °F 64% 29.94 in 10.0 mi Calm Calm - N/A   Clear
4:54 AM 54.0 °F - 46.0 °F 75% 29.94 in 10.0 mi ESE 4.6 mph - N/A   Clear
5:54 AM 54.0 °F - 46.0 °F 75% 29.95 in 10.0 mi East 5.8 mph - N/A   Clear
6:54 AM 60.1 °F - 46.0 °F 60% 29.96 in 10.0 mi SE 5.8 mph - N/A   Clear
7:54 AM 66.0 °F - 46.9 °F 50% 29.96 in 10.0 mi SSE 6.9 mph - N/A   Clear
8:54 AM 73.0 °F - 51.1 °F 46% 29.96 in 10.0 mi South 5.8 mph - N/A   Clear
9:54 AM 78.1 °F - 52.0 °F 40% 29.94 in 10.0 mi South 12.7 mph - N/A   Clear
10:54 AM 82.0 °F 81.3 °F 54.0 °F 38% 29.94 in 10.0 mi South 16.1 mph - N/A   Clear
11:54 AM 82.9 °F 81.9 °F 54.0 °F 37% 29.95 in 10.0 mi South 15.0 mph 24.2 mph N/A   Partly Cloudy
12:54 PM 84.9 °F 83.2 °F 53.1 °F 33% 29.94 in 10.0 mi South 15.0 mph 26.5 mph N/A   Scattered Clouds
1:54 PM 86.0 °F 84.5 °F 55.0 °F 35% 29.91 in 10.0 mi SSW 18.4 mph 24.2 mph N/A   Clear
2:54 PM 86.0 °F - 52.0 °F 31% 29.89 in 10.0 mi South 18.4 mph 26.5 mph N/A   Clear
3:54 PM 88.0 °F - 52.0 °F 29% 29.86 in 10.0 mi South 16.1 mph 27.6 mph N/A   Clear
4:54 PM 87.1 °F - 51.1 °F 29% 29.88 in 10.0 mi South 20.7 mph 28.8 mph N/A   Clear
5:54 PM 86.0 °F - 52.0 °F 31% 29.89 in 10.0 mi SSW 15.0 mph 26.5 mph N/A   Mostly Cloudy
6:54 PM 84.0 °F 82.6 °F 54.0 °F 35% 29.90 in 10.0 mi SSW 13.8 mph - N/A   Clear
7:54 PM 81.0 °F 80.5 °F 54.0 °F 39% 29.89 in 10.0 mi South 8.1 mph - N/A   Clear
8:54 PM 77.0 °F - 55.0 °F 47% 29.89 in 10.0 mi South 5.8 mph - N/A   Clear
9:54 PM 73.0 °F - 55.0 °F 53% 29.91 in 10.0 mi SE 6.9 mph - N/A   Clear
10:54 PM 72.0 °F - 55.9 °F 57% 29.91 in 9.0 mi Calm Calm - N/A   Clear
11:54 PM 68.0 °F - 55.9 °F 65% 29.92 in 9.0 mi Calm Calm - N/A   Clear